CW6876 Weather Reports


time (UTC)temp
C
wind
direction
speed
KPH
gust
KPH
rain 1hr
cm
rain 24hr
cm
rain mn
cm
humidity
%
barometer
mb
20260506161527 15 188 3.2 19.3 0.20 0.38 0.38 94 1008.7
20260506160117 14 114 3.2 11.3 0.23 0.33 0.33 93 1008.7
20260506154535 14 132 3.2 11.3 0.23 0.28 0.28 93 1009.7
20260506153005 14 120 1.6 9.7 0.18 0.20 0.20 92 1009.9
20260506151547 15 146 1.6 12.9 0.18 0.18 0.18 92 1010.0
20260506150008 15 141 3.2 12.9 0.10 0.10 0.10 91 1009.8
20260506144602 15 185 3.2 9.7 0.05 0.05 0.05 91 1009.9
20260506143027 15 114 1.6 12.9 0.03 0.03 0.03 89 1009.9
20260506141559 15 204 3.2 11.3 0.00 0.00 0.00 87 1009.9
20260506140028 16 155 0.0 16.1 0.00 0.00 0.00 85 1009.9
20260506134611 16 184 1.6 9.7 0.00 0.00 0.00 85 1010.0
20260506133042 16 185 0.0 8.0 0.00 0.00 0.00 84 1009.7
20260506131506 16 125 1.6 6.4 0.00 0.00 0.00 84 1010.0
20260506130034 16 110 3.2 19.3 0.00 0.00 0.00 81 1009.9
20260506124606 17 172 3.2 12.9 0.00 0.00 0.00 80 1010.2
20260506123035 17 290 4.8 16.1 0.00 0.00 0.00 78 1010.1
20260506121504 17 188 3.2 11.3 0.00 0.00 0.00 78 1010.0
20260506120045 17 115 3.2 16.1 0.00 0.00 0.00 78 1009.8
20260506114513 17 131 3.2 14.5 0.00 0.00 0.00 78 1009.6
20260506113052 17 0.0 0.0 0.00 0.00 0.00 78 1009.3
20260506111528 17 0.0 0.0 0.00 0.00 0.00 78 1009.5
20260506110009 17 0.0 0.0 0.00 0.00 0.00 77 1009.5
20260506104549 17 0.0 0.0 0.00 0.00 0.00 77 1009.3
20260506103023 17 0.0 0.0 0.00 0.00 0.00 76 1009.3
20260506101603 17 0.0 0.0 0.00 0.00 0.00 76 1009.2
20260506100038 17 0.0 0.0 0.00 0.00 0.00 75 1009.2
20260506094506 17 0.0 0.0 0.00 0.00 0.00 75 1009.3
20260506093049 17 0.0 0.0 0.00 0.00 0.00 75 1009.2
20260506091517 17 0.0 0.0 0.00 0.00 0.00 75 1009.1
20260506090100 17 0.0 0.0 0.00 0.00 0.00 74 1009.4
20260506084527 18 172 3.2 9.7 0.00 0.00 0.00 74 1009.3
20260506083107 18 141 3.2 9.7 0.00 0.00 0.00 73 1009.3
20260506081538 18 103 4.8 14.5 0.00 0.00 0.00 73 1009.4
20260506073007 18 136 3.2 9.7 0.00 0.00 0.00 70 1009.6
20260506071551 18 169 3.2 11.3 0.00 0.00 0.00 69 1009.7
20260506061504 18 188 3.2 9.7 0.00 0.00 0.00 65 1010.3
20260506050124 19 155 0.0 8.0 0.00 0.00 0.00 61 1010.9
20260506044546 19 152 1.6 9.7 0.00 0.00 0.00 61 1010.8
20260506043007 18 160 0.0 6.4 0.00 0.00 0.00 61 1011.0
20260506041545 18 94 0.0 8.0 0.00 0.00 0.00 61 1010.9
20260506040012 18 200 0.0 11.3 0.00 0.00 0.00 61 1010.8
20260506034556 18 119 0.0 6.4 0.00 0.00 0.00 61 1010.8
20260506033025 18 152 0.0 6.4 0.00 0.00 0.00 60 1010.8
20260506031606 19 121 1.6 12.9 0.00 0.00 0.00 59 1010.7
20260506030030 19 194 1.6 11.3 0.00 0.00 0.00 58 1010.7
20260506024607 20 252 0.0 9.7 0.00 0.00 0.00 57 1010.8
20260506023037 20 206 1.6 9.7 0.00 0.00 0.00 56 1010.8
20260506021511 20 81 0.0 8.0 0.00 0.00 0.00 55 1010.8
20260506020054 20 168 1.6 9.7 0.00 0.00 0.00 54 1010.7
20260506014521 21 172 1.6 12.9 0.00 0.00 0.00 52 1010.5
20260506011535 21 166 1.6 9.7 0.00 0.00 0.00 51 1010.3
20260506010001 21 207 3.2 11.3 0.00 0.00 0.00 49 1010.0
20260506004539 21 152 0.0 8.0 0.00 0.00 0.00 48 1010.0
20260506003010 21 195 0.0 6.4 0.00 0.00 0.00 47 1009.8
20260506001603 22 113 0.0 8.0 0.00 0.00 0.00 45 1009.7
20260506000037 22 177 1.6 11.3 0.00 0.00 0.00 45 1009.6
20260505234502 23 200 1.6 8.0 0.00 0.00 0.00 44 1009.4
20260505233030 23 117 3.2 14.5 0.00 0.00 0.00 43 1009.3
20260505231609 23 203 3.2 11.3 0.00 0.00 0.00 42 1009.3
20260505230037 23 144 3.2 12.9 0.00 0.00 0.00 43 1009.3
20260505224505 23 199 1.6 17.7 0.00 0.00 0.00 42 1009.3
20260505223050 23 150 6.4 17.7 0.00 0.00 0.00 42 1009.3
20260505221516 24 150 3.2 17.7 0.00 0.00 0.00 40 1009.4
20260505220057 24 195 8.0 24.1 0.00 0.00 0.00 39 1009.1
20260505214531 25 158 8.0 20.9 0.00 0.00 0.00 38 1009.1
20260505213105 25 321 4.8 19.3 0.00 0.00 0.00 39 1009.1
20260505211537 25 13 8.0 20.9 0.00 0.00 0.00 39 1009.0
20260505210004 24 205 4.8 17.7 0.00 0.00 0.00 39 1009.2
20260505204545 25 94 6.4 25.7 0.00 0.00 0.00 40 1009.2
20260505203015 25 193 4.8 14.5 0.00 0.00 0.00 40 1009.1
20260505201557 25 200 6.4 17.7 0.00 0.00 0.00 40 1009.2
20260505200030 25 203 4.8 29.0 0.00 0.00 0.00 41 1009.2
20260505194605 25 186 8.0 19.3 0.00 0.00 0.00 41 1009.3
20260505193029 25 150 4.8 20.9 0.00 0.00 0.00 40 1009.6
20260505191613 25 295 4.8 32.2 0.00 0.00 0.00 40 1009.7
20260505190048 25 329 4.8 12.9 0.00 0.00 0.00 38 1009.9
20260505184513 25 207 6.4 14.5 0.00 0.00 0.00 39 1010.1
20260505183102 25 212 1.6 17.7 0.00 0.00 0.00 40 1010.3
20260505181513 25 139 4.8 12.9 0.00 0.00 0.00 39 1010.3
20260505180056 25 316 4.8 14.5 0.00 0.00 0.00 41 1010.5
20260505174517 25 201 3.2 12.9 0.00 0.00 0.00 46 1010.5
20260505173059 25 129 3.2 16.1 0.00 0.00 0.00 45 1010.7
20260505171527 25 158 1.6 14.5 0.00 0.00 0.00 49 1010.9
20260505170107 25 172 0.0 8.0 0.00 0.00 0.00 48 1010.8
20260505164537 25 155 1.6 16.1 0.00 0.00 0.00 44 1011.1
20260505163009 25 134 0.0 9.7 0.00 0.00 0.00 45 1011.1